GRL227 BGSF-BGGH

Flight info

Callsign GRL227
Flight time N/A
Altitude 22000
Route GILPO1A GILPO DCT BAKUG DCT GETDA
Aircraft DH8B/M-SDFGR/S

Departure

Time 2026-05-04 19:40
Airport Kangerlussuaq International Airport (BGSF)

Arrival

Time N/A
Airport Nuuk International Airport (BGGH)
Time Latitude Longitude Altitude Speed Heading
2026-05-04 18:43 67.01869 -50.69374 200 ft 0 kts 163°
2026-05-04 19:07 67.01867 -50.69373 200 ft 1 kts 163°
2026-05-04 19:08 67.01845 -50.69356 209 ft 7 kts 163°
2026-05-04 19:08 67.01779 -50.69304 205 ft 13 kts 162°
2026-05-04 19:08 67.01725 -50.69260 203 ft 0 kts 161°
2026-05-04 19:26 67.01869 -50.69374 200 ft 0 kts 163°
2026-05-04 19:36 67.01864 -50.69371 200 ft 6 kts 165°
2026-05-04 19:36 67.01760 -50.69264 204 ft 18 kts 150°
2026-05-04 19:36 67.01645 -50.69203 209 ft 19 kts 229°
2026-05-04 19:37 67.01562 -50.69545 195 ft 26 kts 241°
2026-05-04 19:37 67.01467 -50.69995 198 ft 31 kts 241°
2026-05-04 19:37 67.01358 -50.70506 185 ft 34 kts 242°
2026-05-04 19:37 67.01241 -50.71065 176 ft 38 kts 243°
2026-05-04 19:38 67.01110 -50.71662 172 ft 40 kts 241°
2026-05-04 19:38 67.00972 -50.72312 162 ft 44 kts 241°
2026-05-04 19:38 67.00826 -50.73003 156 ft 45 kts 242°
2026-05-04 19:38 67.00675 -50.73710 145 ft 46 kts 241°
2026-05-04 19:39 67.00593 -50.74101 142 ft 9 kts
2026-05-04 19:39 67.00693 -50.73673 145 ft 79 kts 62°
2026-05-04 19:39 67.01081 -50.71824 212 ft 147 kts 62°
2026-05-04 19:39 67.01658 -50.69301 528 ft 174 kts 64°
2026-05-04 19:40 67.01918 -50.66277 1152 ft 177 kts 88°
2026-05-04 19:40 67.02111 -50.63161 1802 ft 178 kts 76°
2026-05-04 19:40 67.02429 -50.60097 2471 ft 179 kts 76°
2026-05-04 19:40 67.02548 -50.56894 3124 ft 185 kts 102°
2026-05-04 19:41 67.01842 -50.54167 3789 ft 191 kts 147°
2026-05-04 19:41 67.00582 -50.53405 4459 ft 194 kts 188°
2026-05-04 19:41 66.99335 -50.54653 5151 ft 195 kts 211°
2026-05-04 19:41 66.98090 -50.56088 5825 ft 198 kts 198°
2026-05-04 19:42 66.96757 -50.57074 6453 ft 201 kts 198°
2026-05-04 19:42 66.95409 -50.58164 7103 ft 205 kts 200°
2026-05-04 19:42 66.94055 -50.59362 7747 ft 207 kts 201°
2026-05-04 19:42 66.92683 -50.60556 8389 ft 210 kts 200°
2026-05-04 19:43 66.91292 -50.61743 9035 ft 211 kts 201°
2026-05-04 19:43 66.89888 -50.62968 9671 ft 214 kts 202°
2026-05-04 19:43 66.88469 -50.64194 10317 ft 216 kts 202°
2026-05-04 19:43 66.87028 -50.65436 10903 ft 220 kts 204°
2026-05-04 19:44 66.85569 -50.66692 11498 ft 223 kts 204°
2026-05-04 19:44 66.84088 -50.67970 12087 ft 227 kts 205°
2026-05-04 19:44 66.82573 -50.69249 12682 ft 231 kts 205°
2026-05-04 19:44 66.81063 -50.70571 13269 ft 233 kts 206°
2026-05-04 19:45 66.79522 -50.71886 13860 ft 234 kts 205°
2026-05-04 19:45 66.77970 -50.73200 14451 ft 236 kts 206°
2026-05-04 19:45 66.76409 -50.74554 15032 ft 238 kts 206°
2026-05-04 19:45 66.74837 -50.75879 15615 ft 239 kts 206°
2026-05-04 19:46 66.73249 -50.77233 16197 ft 241 kts 207°
2026-05-04 19:46 66.71657 -50.78594 16774 ft 242 kts 207°
2026-05-04 19:46 66.70053 -50.79946 17353 ft 243 kts 207°
2026-05-04 19:46 66.68513 -50.81631 17939 ft 240 kts 216°
2026-05-04 19:47 66.66994 -50.83462 18507 ft 243 kts 213°
2026-05-04 19:47 66.65431 -50.85181 19081 ft 246 kts 212°
2026-05-04 19:47 66.63874 -50.86882 19646 ft 248 kts 212°
2026-05-04 19:47 66.62292 -50.88655 20221 ft 249 kts 213°
2026-05-04 19:48 66.60706 -50.90461 20788 ft 251 kts 213°
2026-05-04 19:48 66.59104 -50.92237 21366 ft 252 kts 212°
2026-05-04 19:48 66.57496 -50.94047 21935 ft 254 kts 213°
2026-05-04 19:48 66.55850 -50.95914 22250 ft 267 kts 212°
2026-05-04 19:49 66.54703 -50.97206 22287 ft 278 kts 212°
2026-05-04 19:49 66.52888 -50.99249 22296 ft 292 kts 212°
2026-05-04 19:49 66.51004 -51.01383 22293 ft 302 kts 212°
2026-05-04 19:49 66.49082 -51.03571 22296 ft 300 kts 212°
2026-05-04 19:50 66.47244 -51.05576 22260 ft 281 kts 206°
2026-05-04 19:50 66.45325 -51.06286 22240 ft 279 kts 188°
2026-05-04 19:50 66.43407 -51.06346 22246 ft 272 kts 192°
2026-05-04 19:50 66.41546 -51.06790 22244 ft 265 kts 196°
2026-05-04 19:51 66.39720 -51.07315 22239 ft 264 kts 194°
2026-05-04 19:51 66.37894 -51.07706 22239 ft 263 kts 193°
2026-05-04 19:51 66.36069 -51.08066 22241 ft 263 kts 193°
2026-05-04 19:51 66.34243 -51.08428 22243 ft 263 kts 193°
2026-05-04 19:52 66.32444 -51.08805 22245 ft 262 kts 194°
2026-05-04 19:52 66.30624 -51.09226 22236 ft 263 kts 194°
2026-05-04 19:52 66.28805 -51.09611 22236 ft 263 kts 193°
2026-05-04 19:52 66.26980 -51.10000 22241 ft 264 kts 194°
2026-05-04 19:53 66.25146 -51.10422 22240 ft 265 kts 193°
2026-05-04 19:53 66.23302 -51.10806 22238 ft 267 kts 193°
2026-05-04 19:53 66.21454 -51.11213 22239 ft 267 kts 193°
2026-05-04 19:53 66.19601 -51.11619 22234 ft 267 kts 193°
2026-05-04 19:54 66.17750 -51.12009 22235 ft 267 kts 193°